Location: Santa Cristina
(46.5667°N, 11.7167°E)
Time: 05:10:14
(UTC+00:00)

ARIANE 5 R/B - Pass Details

Date: 21 April 2021
Orbit: 749 x 794 km, 98.7° (Epoch: 15 May)

Event Time Altitude Azimuth Distance (km) Brightness Sun altitude
Rises 03:04:10 0° 9° (N) 3,308 6.4 -11.9°
Reaches altitude 10° 03:06:34 10° 4° (N) 2,374 5.5 -11.5°
Maximum altitude 03:11:34 47° 292° (WNW) 1,049 3.0 -10.8°
Enters shadow 03:16:19 11° 220° (SW) 2,275 4.4 -10.1°
